[[{"header":{"parameterUnit":"m.s-1","parameterCategory":1,"la1":30.2991,"la2":30.254,"lo1":-89.0895,"lo2":-89.0444,"dy":0.0017,"dx":0.0017,"nx":28,"ny":28,"refTime":"2025-03-11T03:00:00:Z","depth":0,"parameterNumber":2,"parameterNumberName":"U-component_of_WINDS"},"data":[0,0,0,0,0,0,0,0,0,0,0,0,0,0,0,0,0,0,0,0,0,0,0,0,0,0,0,0,0,0,0,0,0,0,0,0,0,0,0,0,0,0,0,0,0,0,0,0,0,0,0,0,0,0,0,0,0,0,4.0852,4.0853,0,4.0936,4.0937,4.0938,4.0907,4.0905,4.0903,4.0901,4.099,4.0994,4.0998,0,0,0,0,0,0,0,0,0,0,0,0,0,4.0663,4.0666,4.0852,4.0853,4.0854,4.0936,4.0937,4.0939,4.0907,4.0905,4.0902,4.09,4.0988,4.0993,4.0998,0,0,0,0,0,0,0,0,0,0,0,0,0,4.0746,4.0668,4.0851,4.0848,4.0848,4.0936,4.0938,4.0939,4.0907,4.0905,4.0902,4.0899,4.0986,4.0993,4.0999,4.1096,0,0,4.1018,4.1021,0,0,0,0,0,0,0,0,4.0741,4.0753,4.0847,4.0848,4.0849,4.0908,4.0903,4.0992,4.0908,4.0885,4.0901,4.0898,4.0965,4.0973,4.0995,4.11,4.1103,4.1018,4.1022,4.1025,4.1027,0,0,0,0,0,0,0,4.0736,4.0749,4.0885,4.0849,4.085,4.0842,4.0851,4.092,4.094,4.0887,4.0885,4.0895,4.0965,4.0989,4.0997,4.1105,4.1018,4.1024,4.1028,4.103,4.1291,4.1294,0,0,0,0,0,0,4.0729,4.0744,4.0882,4.0888,4.0787,4.0848,4.0858,4.0892,4.0939,4.0944,4.0898,4.0893,4.098,4.099,4.1,4.1115,4.1025,4.1031,4.1034,4.1288,4.1292,4.1295,0,0,0,0,0,0,4.0725,4.0742,4.0879,4.0816,4.0832,4.0854,4.0893,4.0895,4.0919,4.0947,4.0951,4.0919,4.0978,4.0991,4.1071,4.1117,4.1033,4.1039,4.1284,4.1289,4.1293,4.1346,0,0,0,0,0,0,4.072,4.0741,4.0778,4.0817,4.0836,4.0949,4.0896,4.0899,4.093,4.0925,4.0968,4.0972,4.0977,4.1062,4.1078,4.1124,4.1044,4.128,4.1286,4.1292,4.134,4.1352,4.1362,0,0,0,0,0,4.0713,4.079,4.078,4.0797,4.0883,4.0952,4.0963,4.0966,4.0934,4.0971,4.0989,4.0971,4.111,4.1071,4.1088,4.1137,4.1277,4.1284,4.1291,4.1335,4.1349,4.1361,0,0,0,0,0,0,4.0757,4.0795,4.0784,4.0875,4.091,4.0946,4.0993,4.0981,4.1026,4.102,4.1022,4.1032,4.1114,4.1134,4.109,4.1232,4.1189,4.12,4.1216,4.123,4.1241,4.1234,4.1049,0,0,0,0,0,4.0777,4.0829,4.086,4.0938,4.0956,4.0972,4.1002,4.1001,4.1038,4.1053,4.1076,4.1113,4.1164,4.1199,4.1248,4.1343,4.1351,4.1385,4.1396,4.1405,4.1414,4.1464,4.1479,4.1319,4.1319,4.1318,0,0,4.0819,4.0846,4.088,4.0947,4.0974,4.1028,4.0984,4.1044,4.1085,4.1062,4.1138,4.1157,4.1198,4.1286,4.1326,4.1305,4.146,4.1414,4.1421,4.1425,4.1473,4.1488,4.1501,4.1323,4.1323,4.1322,0,0,4.0923,4.095,4.1016,4.1044,4.1085,4.1095,4.1111,4.1148,4.1159,4.1236,4.122,4.1268,4.1357,4.1387,4.1413,4.1527,4.1512,4.1543,4.16,4.1648,4.1661,4.1672,4.1711,4.1725,4.1552,4.1553,4.1553,0,4.097,4.1051,4.1052,4.1113,4.1142,4.1123,4.119,4.1217,4.1273,4.1294,4.1269,4.138,4.1406,4.1499,4.1527,4.155,4.1567,4.1538,4.1659,4.167,4.168,4.1717,4.1732,4.1556,4.1556,4.1555,4.1555,0,4.1106,4.1162,4.1211,4.1264,4.1299,4.1363,4.1373,4.1409,4.1405,4.1417,4.1495,4.1526,4.158,4.1602,4.16,4.1695,4.168,4.1658,4.1614,4.1699,4.1734,4.1748,4.1561,4.156,4.1559,4.1558,0,0,4.1239,4.1291,4.1309,4.1331,4.1375,4.1419,4.1481,4.1533,4.1563,4.1602,4.1654,4.1729,4.1708,4.1738,4.1738,4.1781,4.1867,4.1753,4.1754,4.1772,4.1972,4.1987,4.2004,4.1858,4.186,4.1863,4.1968,0,4.1345,4.1454,4.1456,4.1556,4.1607,4.159,4.1644,4.1676,4.1689,4.1735,4.175,4.1802,4.1771,4.1789,4.1831,4.1848,4.1907,4.184,4.1905,4.1907,4.1893,4.2022,4.2039,4.2137,4.1982,4.1984,4.1986,0,4.1484,4.1525,4.163,4.1664,4.1686,4.1734,4.1781,4.1825,4.1861,4.1868,4.1901,4.1894,4.1958,4.1913,4.1999,4.1954,4.198,4.1993,4.1997,4.2001,4.195,4.2029,4.2168,4.2182,4.2007,4.2006,4.2004,0,4.1568,4.1651,4.1723,4.1743,4.1786,4.182,4.184,4.1873,4.1904,4.1945,4.1965,4.2014,4.204,4.2078,4.2084,4.2051,4.2171,4.2127,4.2177,4.2177,4.2202,4.22,4.2346,4.2222,4.2222,4.2221,4.2221,0,4.1685,4.1749,4.1761,4.1806,4.1877,4.1879,4.1949,4.1966,4.1995,4.2042,4.2031,4.2076,4.2082,4.2129,4.2134,4.2204,4.2217,4.2223,4.2223,4.2223,4.2222,4.2239,4.2232,4.2225,4.2225,4.2224,4.2223,0,4.1791,4.1802,4.1879,4.1913,4.1923,4.1973,4.2002,4.2044,4.2056,4.2115,4.213,4.2148,4.2202,4.2212,4.2276,4.228,4.2362,4.2357,4.2349,4.2348,4.2397,4.2391,4.2558,4.2579,4.2443,4.2444,4.2446,0,4.1864,4.1913,4.1951,4.1981,4.2002,4.2051,4.2082,4.2086,4.2118,4.2162,4.2199,4.2251,4.2293,4.2379,4.2398,4.2447,4.2441,4.2496,4.2449,4.2446,4.244,4.2436,4.244,4.2505,4.2506,4.2508,4.2509,0,4.1992,4.1995,4.2039,4.2085,4.2122,4.2159,4.2194,4.2219,4.2228,4.2265,4.2319,4.2351,4.2415,4.2467,4.2515,4.2535,4.2523,4.2524,4.2537,4.2536,4.2529,4.2532,4.2372,4.2519,4.2518,4.2517,4.2517,4.2516,4.2083,4.2124,4.2157,4.2206,4.2233,4.2265,4.2306,4.2322,4.2367,4.2419,4.2419,4.2477,4.2511,4.2574,4.2597,4.2643,4.2625,4.2646,4.2651,4.2655,4.2659,4.2523,4.2652,4.2651,4.2651,4.2651,4.2651,0,4.2208,4.2228,4.2274,4.2322,4.2361,4.2346,4.2383,4.2417,4.2468,4.25,4.2541,4.2602,4.2652,4.2674,4.2723,4.2755,4.2751,4.2768,4.2764,4.2769,4.2673,4.2655,4.277,4.277,4.277,4.277,4.277,4.277,4.2278,4.2347,4.2353,4.2435,4.2454,4.2511,4.2533,4.2563,4.2588,4.2657,4.2697,4.2711,4.274,4.279,4.2834,4.284,4.2857,4.2876,4.2879,4.2788,4.2776,4.2764,4.2747,4.2881,4.2881,4.2971,4.2972,4.2973]},{"header":{"parameterUnit":"m.s-1","parameterCategory":1,"la1":30.2991,"la2":30.254,"lo1":-89.0895,"lo2":-89.0444,"dy":0.0017,"dx":0.0017,"nx":28,"ny":28,"refTime":"2025-03-11T03:00:00:Z","depth":0,"parameterNumber":3,"parameterNumberName":"V-component_of_WINDS"},"data":[0,0,0,0,0,0,0,0,0,0,0,0,0,0,0,0,0,0,0,0,0,0,0,0,0,0,0,0,0,0,0,0,0,0,0,0,0,0,0,0,0,0,0,0,0,0,0,0,0,0,0,0,0,0,0,0,0,0,2.4233,2.4232,0,2.42,2.4199,2.4199,2.4165,2.4165,2.4165,2.4164,2.413,2.413,2.4129,0,0,0,0,0,0,0,0,0,0,0,0,0,2.4266,2.4265,2.4233,2.4232,2.4232,2.42,2.4199,2.4199,2.4166,2.4165,2.4164,2.4164,2.4131,2.413,2.4129,0,0,0,0,0,0,0,0,0,0,0,0,0,2.4244,2.4265,2.4233,2.4211,2.4209,2.42,2.4199,2.4199,2.4166,2.4165,2.4164,2.4164,2.4131,2.413,2.4129,2.4138,0,0,2.4127,2.4127,0,0,0,0,0,0,0,0,2.4245,2.4243,2.4215,2.4213,2.421,2.4186,2.4198,2.4179,2.4166,2.4182,2.4164,2.4163,2.4149,2.4147,2.4142,2.4137,2.4135,2.4127,2.4127,2.4126,2.4126,0,0,0,0,0,0,0,2.4247,2.4244,2.422,2.4215,2.4212,2.4203,2.4199,2.4195,2.417,2.4181,2.4178,2.4175,2.4148,2.4143,2.4141,2.4135,2.4127,2.4126,2.4126,2.4126,2.4133,2.4134,0,0,0,0,0,0,2.4252,2.4245,2.4221,2.4219,2.4226,2.4203,2.4199,2.4194,2.417,2.4166,2.4175,2.4173,2.4145,2.4142,2.414,2.4148,2.4126,2.4126,2.4125,2.4133,2.4133,2.4134,0,0,0,0,0,0,2.4252,2.425,2.4222,2.4231,2.4227,2.4203,2.4199,2.4194,2.4189,2.4166,2.4161,2.4175,2.4144,2.4141,2.4139,2.4146,2.4125,2.4125,2.4132,2.4133,2.4134,2.4165,0,0,0,0,0,0,2.4254,2.425,2.4254,2.4232,2.4227,2.4222,2.4199,2.4194,2.4188,2.4185,2.4164,2.416,2.4143,2.414,2.4138,2.4145,2.4124,2.4131,2.4132,2.4133,2.4163,2.4166,2.417,0,0,0,0,0,2.4255,2.4264,2.4254,2.4251,2.4231,2.4222,2.4219,2.42,2.4189,2.4192,2.4177,2.4161,2.4146,2.414,2.4137,2.4144,2.413,2.4132,2.4133,2.4161,2.4166,2.417,0,0,0,0,0,0,2.4288,2.4261,2.425,2.4252,2.424,2.4217,2.422,2.4205,2.4196,2.4193,2.4169,2.4165,2.4165,2.4154,2.4148,2.4151,2.4136,2.4137,2.4158,2.4162,2.4165,2.4168,2.4123,0,0,0,0,0,2.4296,2.4291,2.4268,2.4272,2.4266,2.4244,2.424,2.4226,2.4212,2.4206,2.4191,2.4178,2.417,2.4166,2.4157,2.4161,2.4155,2.4164,2.4168,2.4171,2.4172,2.4172,2.4175,2.4139,2.4139,2.4139,0,0,2.4311,2.4296,2.4295,2.4278,2.4267,2.4262,2.424,2.4237,2.4233,2.4206,2.4202,2.4191,2.4174,2.4175,2.4174,2.4166,2.418,2.4173,2.4175,2.4174,2.4173,2.4177,2.418,2.414,2.4139,2.4139,0,0,2.4337,2.4326,2.4328,2.4316,2.43,2.4285,2.4285,2.4264,2.4255,2.4251,2.423,2.4225,2.4212,2.4201,2.4194,2.4214,2.4199,2.4212,2.423,2.423,2.4233,2.4235,2.4242,2.4244,2.4213,2.4214,2.4214,0,2.4359,2.4352,2.433,2.4328,2.432,2.4296,2.4297,2.4287,2.4268,2.4264,2.4255,2.4237,2.4225,2.4221,2.4226,2.4222,2.422,2.4215,2.4234,2.4237,2.4238,2.4244,2.4246,2.4215,2.4215,2.4215,2.4215,0,2.4378,2.4373,2.4377,2.4359,2.4352,2.4351,2.4329,2.4325,2.4311,2.4297,2.4293,2.4276,2.4264,2.4262,2.4249,2.4256,2.4251,2.4239,2.4223,2.4244,2.4249,2.4251,2.4218,2.4217,2.4216,2.4216,0,0,2.4425,2.4394,2.4396,2.4387,2.4366,2.4361,2.4359,2.4346,2.4342,2.433,2.4327,2.4316,2.4304,2.4295,2.428,2.4281,2.4296,2.4267,2.4267,2.4273,2.4302,2.4311,2.4314,2.4286,2.4286,2.4286,2.4303,0,2.4447,2.4441,2.4421,2.4421,2.4416,2.4392,2.4389,2.4376,2.4362,2.4355,2.434,2.4332,2.4317,2.4312,2.4311,2.4294,2.4301,2.4293,2.4282,2.4281,2.4286,2.4317,2.4327,2.4343,2.4305,2.4305,2.4305,0,2.4471,2.446,2.446,2.4438,2.4434,2.4433,2.4419,2.4413,2.4396,2.4386,2.4376,2.4359,2.4354,2.434,2.4332,2.4327,2.4321,2.4312,2.4312,2.431,2.4294,2.4315,2.4348,2.435,2.4308,2.4308,2.4308,0,2.4504,2.4489,2.4486,2.4479,2.4454,2.4453,2.4442,2.4425,2.4418,2.4406,2.4401,2.4389,2.4381,2.4372,2.4351,2.4343,2.4345,2.433,2.4336,2.4337,2.4338,2.4338,2.437,2.4335,2.4335,2.4335,2.4335,0,2.453,2.453,2.45,2.4499,2.4498,2.4475,2.4475,2.4462,2.4447,2.4441,2.442,2.4415,2.4389,2.4381,2.4365,2.436,2.4357,2.4348,2.4344,2.435,2.4351,2.4346,2.4344,2.4336,2.4335,2.4335,2.4335,0,2.4566,2.4546,2.4542,2.4518,2.4512,2.4512,2.4491,2.4488,2.4473,2.4466,2.4463,2.4439,2.4429,2.4407,2.4391,2.438,2.4379,2.4372,2.4384,2.4382,2.4389,2.4388,2.4418,2.442,2.4385,2.4386,2.4386,0,2.4584,2.4584,2.4559,2.4554,2.4544,2.4537,2.4529,2.4506,2.4499,2.448,2.4479,2.4467,2.4456,2.444,2.442,2.4407,2.4399,2.441,2.4397,2.4402,2.4398,2.4398,2.4397,2.4413,2.4414,2.4414,2.4415,0,2.4617,2.4607,2.4597,2.4584,2.4576,2.4564,2.4552,2.4548,2.4522,2.4516,2.4504,2.4496,2.4479,2.4466,2.445,2.4438,2.4422,2.4419,2.442,2.4425,2.4432,2.4428,2.4392,2.4418,2.4418,2.4418,2.4418,2.4417,2.4644,2.4642,2.4624,2.4614,2.4602,2.459,2.4585,2.4569,2.456,2.4544,2.4531,2.4521,2.4503,2.4479,2.4468,2.4459,2.4452,2.4453,2.4453,2.4453,2.4455,2.4434,2.4457,2.4456,2.4456,2.4456,2.4456,0,2.4674,2.4662,2.4653,2.4635,2.4627,2.4612,2.4597,2.4591,2.4582,2.4567,2.4556,2.4543,2.453,2.451,2.4495,2.4492,2.4484,2.4489,2.4488,2.4486,2.4464,2.4464,2.4495,2.4495,2.4495,2.4495,2.4495,2.4495,2.469,2.4685,2.4673,2.4662,2.4649,2.4638,2.4631,2.4619,2.4607,2.4593,2.4583,2.4569,2.4551,2.4535,2.4523,2.4517,2.4512,2.4519,2.4511,2.4491,2.4487,2.4484,2.4484,2.4519,2.4519,2.4533,2.4534,2.4534]}]]